Radiation Dose at Monitoring Post of Fukushima Daini Nuclear Power Station
Date,Time,MP-1(microSv/h),MP-2(microSv/h),MP-3(microSv/h),MP-4(microSv/h),MP-5(microSv/h),MP-6(microSv/h),MP-7(microSv/h),Wind Direction,Wind Velocity(m/s),Rain
2021/06/01,00:00,0.168,0.152,0.241,0.232,0.232,0.130,0.081,southwest,2.7,No
2021/06/01,00:10,0.166,0.152,0.241,0.233,0.234,0.130,0.081,southwest,2.4,No
2021/06/01,00:20,0.167,0.151,0.240,0.232,0.232,0.130,0.081,west-southwest,2.6,No
2021/06/01,00:30,0.166,0.152,0.239,0.232,0.234,0.131,0.082,northwest,3.4,No
2021/06/01,00:40,0.167,0.152,0.240,0.233,0.232,0.131,0.082,northwest,3.2,No
2021/06/01,00:50,0.167,0.151,0.240,0.233,0.234,0.129,0.082,northwest,2.9,No
2021/06/01,01:00,0.167,0.152,0.239,0.232,0.233,0.131,0.080,north-northwest,4.7,No
2021/06/01,01:10,0.167,0.152,0.240,0.232,0.232,0.130,0.081,north,3.7,No
2021/06/01,01:20,0.168,0.152,0.240,0.233,0.233,0.131,0.081,north,2.8,No
2021/06/01,01:30,0.167,0.151,0.241,0.232,0.233,0.130,0.081,north-northwest,2.1,No
2021/06/01,01:40,0.168,0.152,0.239,0.233,0.233,0.130,0.081,north-northwest,2.8,No
2021/06/01,01:50,0.167,0.152,0.241,0.231,0.232,0.131,0.082,north-northwest,3.0,No
2021/06/01,02:00,0.167,0.152,0.240,0.235,0.234,0.131,0.081,north-northwest,4.7,No
2021/06/01,02:10,0.166,0.152,0.240,0.232,0.232,0.130,0.082,north-northwest,4.6,No
2021/06/01,02:20,0.167,0.152,0.241,0.233,0.233,0.131,0.081,north-northwest,4.9,No
2021/06/01,02:30,0.166,0.151,0.240,0.232,0.232,0.130,0.081,northwest,4.7,No
2021/06/01,02:40,0.166,0.152,0.240,0.233,0.233,0.130,0.081,north-northwest,6.0,No
2021/06/01,02:50,0.167,0.152,0.239,0.232,0.232,0.130,0.080,north-northwest,6.2,No
2021/06/01,03:00,0.168,0.151,0.241,0.232,0.232,0.130,0.081,northwest,5.8,No
2021/06/01,03:10,0.168,0.151,0.239,0.232,0.232,0.130,0.080,north-northwest,5.5,No
2021/06/01,03:20,0.166,0.152,0.240,0.231,0.234,0.129,0.081,north-northwest,6.3,No
2021/06/01,03:30,0.167,0.152,0.240,0.232,0.231,0.130,0.081,north-northwest,4.5,No
2021/06/01,03:40,0.166,0.152,0.239,0.231,0.234,0.130,0.080,north-northwest,4.3,No
2021/06/01,03:50,0.168,0.151,0.240,0.232,0.231,0.129,0.080,north-northwest,4.8,No
2021/06/01,04:00,0.165,0.151,0.239,0.231,0.232,0.129,0.080,northwest,4.6,No
2021/06/01,04:10,0.167,0.150,0.241,0.233,0.231,0.130,0.080,north-northwest,3.9,No
2021/06/01,04:20,0.166,0.152,0.238,0.231,0.234,0.130,0.080,north-northwest,5.2,No
2021/06/01,04:30,0.166,0.151,0.239,0.232,0.230,0.129,0.080,north-northwest,4.5,No
2021/06/01,04:40,0.165,0.152,0.240,0.231,0.232,0.130,0.080,north-northwest,4.6,No
2021/06/01,04:50,0.167,0.150,0.240,0.232,0.232,0.130,0.081,north-northwest,5.5,No
2021/06/01,05:00,0.165,0.152,0.240,0.231,0.233,0.130,0.079,north-northwest,5.0,No
2021/06/01,05:10,0.167,0.151,0.240,0.231,0.231,0.129,0.080,north-northwest,5.6,No
2021/06/01,05:20,0.165,0.151,0.239,0.232,0.234,0.129,0.080,north-northwest,4.6,No
2021/06/01,05:30,0.168,0.151,0.239,0.232,0.230,0.129,0.080,north,4.6,No
2021/06/01,05:40,0.166,0.151,0.239,0.232,0.232,0.129,0.080,north,4.3,No
2021/06/01,05:50,0.166,0.151,0.238,0.232,0.230,0.129,0.081,north-northwest,4.3,No
2021/06/01,06:00,0.166,0.151,0.239,0.232,0.232,0.130,0.081,north-northwest,4.9,No
2021/06/01,06:10,0.168,0.152,0.240,0.230,0.232,0.129,0.080,north-northwest,4.1,No
2021/06/01,06:20,0.166,0.151,0.241,0.231,0.233,0.130,0.080,north-northwest,5.6,No
2021/06/01,06:30,0.168,0.150,0.239,0.232,0.231,0.129,0.080,north-northwest,4.1,No
2021/06/01,06:40,0.166,0.150,0.241,0.232,0.232,0.130,0.080,north-northwest,3.1,No
2021/06/01,06:50,0.168,0.152,0.238,0.232,0.233,0.129,0.079,north,3.3,No
2021/06/01,07:00,0.165,0.152,0.241,0.231,0.232,0.130,0.080,north-northwest,3.6,No
2021/06/01,07:10,0.168,0.152,0.238,0.232,0.233,0.129,0.080,north-northwest,3.4,No
2021/06/01,07:20,0.167,0.152,0.240,0.231,0.230,0.129,0.081,northwest,3.6,No
2021/06/01,07:30,0.167,0.151,0.239,0.233,0.232,0.130,0.080,north-northwest,2.5,No
2021/06/01,07:40,0.165,0.151,0.240,0.231,0.231,0.129,0.080,north,2.8,No
2021/06/01,07:50,0.167,0.150,0.239,0.233,0.231,0.129,0.080,north-northwest,2.8,No
2021/06/01,08:00,0.166,0.152,0.240,0.231,0.234,0.130,0.080,north,3.6,No
2021/06/01,08:10,0.167,0.151,0.240,0.231,0.232,0.129,0.081,north-northeast,2.7,No
2021/06/01,08:20,0.166,0.152,0.238,0.232,0.232,0.130,0.080,north-northeast,3.5,No
2021/06/01,08:30,0.167,0.152,0.241,0.231,0.232,0.131,0.080,north-northeast,3.5,No
2021/06/01,08:40,0.167,0.151,0.240,0.232,0.231,0.129,0.080,north,3.1,No
2021/06/01,08:50,0.166,0.152,0.240,0.232,0.234,0.130,0.079,northeast,4.0,No
2021/06/01,09:00,0.167,0.151,0.240,0.231,0.232,0.130,0.079,northeast,2.9,No
2021/06/01,09:10,0.166,0.152,0.239,0.234,0.232,0.129,0.080,northeast,3.5,No
2021/06/01,09:20,0.168,0.151,0.240,0.231,0.233,0.130,0.081,northeast,3.3,No
2021/06/01,09:30,0.165,0.152,0.238,0.233,0.231,0.130,0.081,east-northeast,4.4,No
2021/06/01,09:40,0.165,0.151,0.241,0.233,0.233,0.129,0.080,east,3.8,No
2021/06/01,09:50,0.167,0.151,0.240,0.231,0.232,0.130,0.080,east,3.3,No
2021/06/01,10:00,0.166,0.152,0.238,0.229,0.232,0.130,0.081,east,3.0,No
2021/06/01,10:10,0.165,0.150,0.240,0.232,0.234,0.130,0.080,east,3.2,No
2021/06/01,10:20,0.167,0.150,0.240,0.227,0.234,0.130,0.080,east,2.7,No
2021/06/01,10:30,0.166,0.152,0.238,0.231,0.231,0.128,0.080,east-southeast,2.7,No
2021/06/01,10:40,0.167,0.151,0.241,0.233,0.233,0.130,0.080,east,2.5,No
2021/06/01,10:50,0.166,0.150,0.241,0.232,0.234,0.130,0.080,east-southeast,3.4,No
2021/06/01,11:00,0.166,0.152,0.239,0.230,0.233,0.129,0.081,southeast,3.3,No
2021/06/01,11:10,0.165,0.152,0.239,0.230,0.229,0.129,0.081,east-southeast,3.7,No
2021/06/01,11:20,0.166,0.150,0.237,0.233,0.232,0.129,0.081,east-southeast,4.1,No
2021/06/01,11:30,0.168,0.151,0.241,0.233,0.234,0.130,0.079,east-southeast,3.9,No
2021/06/01,11:40,0.166,0.152,0.241,0.231,0.232,0.129,0.081,east,3.5,No
2021/06/01,11:50,0.165,0.151,0.240,0.229,0.229,0.129,0.080,east-southeast,2.6,No
2021/06/01,12:00,0.165,0.150,0.240,0.234,0.233,0.129,0.080,east-southeast,3.1,No
2021/06/01,12:10,0.164,0.151,0.241,0.235,0.234,0.130,0.081,east-southeast,3.1,No
2021/06/01,12:20,0.167,0.152,0.243,0.233,0.233,0.130,0.080,east-southeast,3.0,No
2021/06/01,12:30,0.167,0.152,0.241,0.231,0.231,0.130,0.080,east-southeast,3.6,No
2021/06/01,12:40,0.166,0.149,0.240,0.231,0.230,0.131,0.080,east-southeast,3.2,No
2021/06/01,12:50,0.165,0.151,0.240,0.235,0.234,0.131,0.080,southeast,3.6,No
2021/06/01,13:00,0.166,0.152,0.243,0.234,0.234,0.131,0.080,east-southeast,4.1,No
2021/06/01,13:10,0.164,0.153,0.241,0.233,0.233,0.129,0.080,east-southeast,4.0,No
2021/06/01,13:20,0.164,0.151,0.240,0.231,0.231,0.130,0.080,southeast,3.5,No
2021/06/01,13:30,0.166,0.151,0.239,0.234,0.232,0.131,0.080,southeast,4.0,No
2021/06/01,13:40,0.168,0.151,0.243,0.235,0.236,0.131,0.081,southeast,3.9,No
2021/06/01,13:50,0.168,0.152,0.242,0.234,0.234,0.130,0.081,southeast,4.4,No
2021/06/01,14:00,0.166,0.151,0.242,0.232,0.232,0.129,0.081,southeast,3.8,No
2021/06/01,14:10,0.166,0.151,0.241,0.235,0.231,0.131,0.080,south-southeast,4.4,No
2021/06/01,14:20,0.166,0.153,0.243,0.236,0.234,0.130,0.080,south-southeast,2.9,No
2021/06/01,14:30,0.167,0.152,0.241,0.232,0.235,0.129,0.081,south-southeast,3.9,No
2021/06/01,14:40,0.168,0.151,0.240,0.234,0.233,0.130,0.080,southeast,4.9,No
2021/06/01,14:50,0.168,0.151,0.244,0.235,0.231,0.130,0.080,south-southeast,3.9,No
2021/06/01,15:00,0.166,0.153,0.242,0.234,0.233,0.130,0.080,south-southeast,4.4,No
2021/06/01,15:10,0.165,0.153,0.240,0.233,0.235,0.130,0.079,south-southeast,4.5,No
2021/06/01,15:20,0.168,0.151,0.243,0.235,0.233,0.130,0.081,south-southeast,4.5,No
2021/06/01,15:30,0.169,0.152,0.243,0.234,0.232,0.130,0.081,south-southeast,4.5,No
2021/06/01,15:40,0.166,0.152,0.241,0.233,0.236,0.130,0.080,south-southeast,4.5,No
2021/06/01,15:50,0.168,0.152,0.244,0.236,0.234,0.131,0.081,south-southeast,4.6,No
2021/06/01,16:00,0.168,0.153,0.241,0.233,0.232,0.130,0.081,south-southeast,4.2,No
2021/06/01,16:10,0.167,0.152,0.243,0.235,0.232,0.131,0.080,south-southeast,4.0,No
2021/06/01,16:20,0.165,0.153,0.242,0.234,0.236,0.131,0.081,south-southeast,4.7,No
2021/06/01,16:30,0.169,0.153,0.242,0.235,0.234,0.129,0.081,south-southeast,4.5,No
2021/06/01,16:40,0.167,0.154,0.244,0.236,0.232,0.130,0.080,south-southeast,4.1,No
2021/06/01,16:50,0.166,0.152,0.242,0.233,0.236,0.131,0.081,south-southeast,4.0,No
2021/06/01,17:00,0.168,0.153,0.243,0.235,0.233,0.130,0.081,south-southeast,3.3,No
2021/06/01,17:10,0.167,0.152,0.242,0.234,0.234,0.130,0.081,south-southeast,4.2,No
2021/06/01,17:20,0.167,0.151,0.243,0.236,0.233,0.130,0.080,south,3.1,No
2021/06/01,17:30,0.167,0.152,0.242,0.234,0.233,0.131,0.081,south-southeast,2.6,No
2021/06/01,17:40,0.166,0.153,0.244,0.236,0.235,0.131,0.079,south,3.9,No
2021/06/01,17:50,0.168,0.152,0.243,0.234,0.234,0.130,0.081,south,5.2,No
2021/06/01,18:00,0.167,0.152,0.243,0.235,0.235,0.130,0.080,south-southeast,3.1,No
2021/06/01,18:10,0.167,0.153,0.242,0.236,0.235,0.129,0.081,south,4.3,No
2021/06/01,18:20,0.168,0.152,0.242,0.236,0.235,0.130,0.081,south,3.7,No
2021/06/01,18:30,0.167,0.153,0.243,0.235,0.235,0.130,0.081,south,4.0,No
2021/06/01,18:40,0.167,0.153,0.243,0.236,0.235,0.131,0.080,south,3.9,No
2021/06/01,18:50,0.167,0.152,0.242,0.235,0.235,0.131,0.080,south,3.6,No
2021/06/01,19:00,0.168,0.152,0.243,0.235,0.235,0.131,0.080,south,4.0,No
2021/06/01,19:10,0.167,0.153,0.242,0.236,0.235,0.130,0.081,south,3.5,No
2021/06/01,19:20,0.169,0.152,0.243,0.234,0.234,0.131,0.081,south,3.6,No
2021/06/01,19:30,0.167,0.153,0.242,0.237,0.234,0.130,0.080,south-southeast,3.3,No
2021/06/01,19:40,0.168,0.152,0.243,0.235,0.233,0.130,0.081,south-southeast,3.5,No
2021/06/01,19:50,0.167,0.153,0.242,0.236,0.235,0.130,0.080,south,3.4,No
2021/06/01,20:00,0.167,0.152,0.242,0.235,0.234,0.131,0.081,south,2.9,No
2021/06/01,20:10,0.167,0.153,0.243,0.235,0.235,0.131,0.081,south,3.8,No
2021/06/01,20:20,0.168,0.154,0.243,0.235,0.234,0.130,0.081,south,5.2,No
2021/06/01,20:30,0.167,0.152,0.242,0.236,0.235,0.131,0.081,south,5.5,No
2021/06/01,20:40,0.168,0.153,0.243,0.235,0.233,0.131,0.081,south,4.7,No
2021/06/01,20:50,0.167,0.153,0.243,0.234,0.235,0.131,0.081,south,4.2,No
2021/06/01,21:00,0.168,0.153,0.243,0.235,0.234,0.131,0.080,south,4.2,No
2021/06/01,21:10,0.168,0.153,0.244,0.235,0.234,0.131,0.081,south-southeast,3.7,No
2021/06/01,21:20,0.168,0.153,0.242,0.236,0.233,0.130,0.081,south-southeast,3.4,No
2021/06/01,21:30,0.167,0.153,0.244,0.234,0.235,0.130,0.080,south-southeast,3.5,No
2021/06/01,21:40,0.168,0.152,0.242,0.236,0.233,0.131,0.081,south,4.3,No
2021/06/01,21:50,0.167,0.153,0.243,0.234,0.236,0.131,0.080,south,4.7,No
2021/06/01,22:00,0.168,0.152,0.242,0.236,0.234,0.130,0.081,south,4.7,No
2021/06/01,22:10,0.167,0.152,0.243,0.234,0.235,0.131,0.081,south,5.2,No
2021/06/01,22:20,0.169,0.151,0.242,0.236,0.234,0.130,0.080,south,4.4,No
2021/06/01,22:30,0.167,0.152,0.243,0.235,0.234,0.131,0.081,south,4.0,No
2021/06/01,22:40,0.168,0.154,0.245,0.234,0.232,0.130,0.080,south,4.1,No
2021/06/01,22:50,0.167,0.151,0.242,0.235,0.234,0.130,0.081,south-southeast,5.1,No
2021/06/01,23:00,0.168,0.152,0.243,0.235,0.234,0.131,0.080,south,5.4,No
2021/06/01,23:10,0.167,0.152,0.242,0.236,0.235,0.130,0.081,south,5.7,No
2021/06/01,23:20,0.168,0.153,0.243,0.235,0.233,0.131,0.081,south,5.4,No
2021/06/01,23:30,0.168,0.152,0.243,0.237,0.235,0.131,0.081,south,4.7,No
2021/06/01,23:40,0.169,0.152,0.243,0.234,0.234,0.131,0.080,south,5.3,No
2021/06/01,23:50,0.166,0.152,0.244,0.237,0.234,0.130,0.081,south,6.3,No
